Dewpoint
20 17 17 17 18 18 16 11 12 14 12 13 15 14 13 12 11 12 12 11 13 9 11 10 10 8 16 17 26 33 34 37 38 39 41 42 42 43 44 46 47 47 47 48 48 48 48 48 48 48 48 47 47 47 47 47 48 49 51 52 53 55 56 57 57 58 59 60 61 63 63 63 64 64 65 65 66 66 66 66 66 66 66 66 66 66
18 18 20 18 17 17 17 15 16 13 13 12 12 13 11 12 11 14 15 15 19 14 15 20 14 16 19 23 25 31 36 36 38 39 40 41 42 43 45 46 45 45 46 46 45 46 46 46 47 47 46 50 44 46 46 46 47 47 49 50 51 53 53 54 56 55 56 58 59 60 62 62 63 63 63 64 65 65 66 66 66 67 67 66 66 66
20 18 18 18 19 18 18 16 14 13 15 14 13 14 14 16 13 16 19 23 23 17 16 19 17 17 25 28 27 32 35 36 38 39 40 41 41 43 44 44 44 44 43 44 44 45 45 46 46 45 46 46 45 44 45 46 46 46 46 47 49 50 51 52 54 53 54 56 57 59 61 62 63 64 63 64 65 65 66 66 66 67 67 67 66 66
18 19 19 20 19 18 18 16 16 17 18 14 17 18 18 19 17 15 20 25 23 20 19 19 16 22 26 31 31 33 34 35 37 38 37 40 42 43 43 43 43 43 42 42 42 43 44 44 44 44 44 44 43 44 44 45 45 46 50 46 47 48 49 49 52 53 53 55 55 56 59 61 63 64 65 65 65 65 65 65 66 66 67 67 67 67
12 13 16 18 19 17 17 18 16 17 17 21 15 18 20 22 21 16 18 21 23 21 21 20 22 21 24 28 29 32 35 34 35 35 37 39 40 41 43 43 43 43 42 42 42 42 42 42 44 44 45 44 43 44 44 45 46 46 46 46 46 47 48 48 51 50 52 52 51 53 54 57 58 60 61 61 61 62 64 64 65 65 66 66 67 67
13 16 17 19 18 18 17 18 17 18 18 22 24 17 18 19 18 22 21 20 20 21 22 17 17 19 23 26 30 32 34 34 34 35 36 38 40 42 42 42 43 42 42 42 41 42 43 43 43 43 43 43 43 44 45 45 46 46 46 46 46 47 47 47 48 49 50 50 50 51 52 52 53 54 55 56 57 59 60 61 63 64 65 66 66 67
18 20 19 18 17 18 17 17 18 18 19 20 19 20 19 19 18 19 20 19 18 16 24 21 17 16 23 27 29 31 33 33 34 35 36 39 40 41 42 42 41 41 41 42 42 42 42 43 43 43 42 42 42 44 45 46 45 46 46 46 46 46 47 47 47 47 50 48 49 50 50 51 52 52 53 55 56 57 58 61 63 64 64 65 65 66
24 20 20 20 20 21 21 20 20 19 20 19 21 20 20 18 19 19 19 19 20 27 26 25 20 18 17 20 27 29 32 32 33 34 35 38 40 41 41 41 41 41 41 41 41 42 42 42 41 41 42 42 43 44 45 45 45 45 46 45 45 47 48 46 47 46 49 48 48 48 49 51 51 51 51 52 53 56 58 59 60 62 64 65 65 65
22 18 21 20 22 19 19 21 23 22 21 21 23 19 19 20 19 20 20 20 23 22 21 24 25 17 19 22 28 31 30 30 31 33 34 36 38 40 40 40 40 41 41 41 41 41 41 42 42 43 43 43 44 44 43 44 45 45 46 47 45 45 46 46 47 47 46 49 48 48 48 48 48 50 50 52 53 54 55 55 57 59 62 64 65 65
18 19 19 20 19 19 20 22 24 22 22 23 26 31 32 32 31 23 23 24 23 21 19 22 24 19 20 23 26 28 28 29 30 32 34 35 38 38 39 39 40 40 40 41 40 40 41 42 43 43 43 44 43 44 48 44 45 45 45 46 44 44 45 46 45 45 45 45 48 46 46 46 45 47 47 49 50 51 52 53 54 57 59 62 64 65
18 36 34 20 19 19 21 22 24 23 22 23 22 23 25 26 28 30 26 25 23 16 21 23 25 20 19 23 26 28 28 29 30 32 34 36 37 37 38 39 40 39 39 39 40 41 41 42 43 44 42 42 42 43 44 44 45 44 44 44 43 44 45 46 45 44 44 44 45 44 45 44 44 45 46 47 48 49 50 50 51 54 57 60 61 63
24 24 27 23 34 23 22 21 23 25 27 24 24 24 22 23 22 23 23 24 18 16 22 24 27 22 19 22 25 29 29 31 31 31 32 34 35 36 37 38 39 39 39 39 40 40 41 42 42 42 41 41 41 42 42 43 44 45 44 44 42 43 44 44 45 45 44 44 43 44 44 44 44 45 45 45 46 47 48 50 51 53 56 57 59 61
23 22 24 25 43 21 21 20 20 24 24 24 25 25 19 16 18 12 18 14 15 19 22 28 26 21 20 22 26 27 28 30 31 31 32 34 35 35 37 38 39 39 39 39 39 40 41 41 40 40 40 40 39 39 41 43 43 43 44 44 42 42 43 44 44 44 44 43 43 43 43 44 45 45 45 45 46 47 48 50 51 52 53 53 56 59
22 25 23 25 23 34 21 19 19 20 22 22 22 22 20 16 12 9 10 15 18 19 22 23 27 21 24 24 27 27 30 33 32 31 33 34 35 35 36 37 37 38 38 38 39 39 40 40 40 40 40 40 40 40 41 43 44 43 43 44 44 42 43 44 43 43 43 43 43 43 43 43 44 44 45 45 45 46 48 49 50 50 51 51 54 57
15 20 21 24 22 26 24 22 21 21 22 22 23 21 22 19 15 10 15 9 12 18 20 24 21 21 18 20 31 33 35 38 37 32 33 34 35 37 36 36 36 37 37 37 38 39 39 40 40 40 41 40 41 40 40 41 42 42 42 43 42 41 42 43 43 43 42 42 42 43 43 44 44 44 45 45 46 47 47 48 48 48 49 51 54 56
22 20 23 26 24 24 23 26 24 23 23 24 23 22 19 19 23 16 20 19 19 19 17 19 17 22 23 28 36 37 36 35 35 33 35 34 34 35 35 35 36 36 37 37 37 38 39 40 40 41 41 41 41 42 40 40 42 42 42 43 42 42 42 42 45 42 42 42 43 43 43 43 46 46 46 45 46 46 47 47 48 48 50 52 52 52
22 20 23 25 22 22 22 26 25 22 20 24 21 20 22 25 23 18 19 22 20 18 15 15 22 23 27 27 32 35 33 34 32 32 32 33 34 34 35 35 36 36 37 37 37 38 38 39 41 41 41 41 42 42 40 40 41 41 42 42 42 42 42 42 44 42 42 42 43 43 43 44 44 44 43 44 44 45 45 47 48 49 48 48 49 49
22 23 24 19 21 22 24 26 25 26 24 21 19 22 28 29 27 21 15 14 11 14 13 21 19 21 21 19 32 31 31 33 31 31 32 33 33 33 34 35 36 36 36 37 37 38 38 39 40 40 41 40 40 42 40 42 42 42 43 43 42 42 42 42 42 43 43 43 42 43 44 44 44 43 43 44 44 45 45 46 46 46 47 47 47 48
23 18 22 21 23 23 24 25 24 27 26 22 22 25 22 17 19 25 18 12 12 10 8 17 21 21 22 23 28 30 31 31 34 33 31 31 32 33 34 35 36 36 36 36 37 37 38 39 39 40 39 40 40 45 40 41 42 43 43 43 44 43 43 43 43 43 43 43 43 44 44 44 44 43 43 44 44 45 44 44 44 44 45 46 47 49
29 17 22 23 23 26 21 24 22 25 25 30 28 27 31 25 24 19 19 21 21 8 12 16 19 18 23 26 29 30 31 31 33 34 31 31 31 32 33 34 35 36 36 36 36 37 38 38 39 39 39 38 39 39 40 41 42 42 42 43 42 44 43 42 42 43 42 42 43 43 44 43 43 44 43 44 44 43 43 43 44 44 45 46 48 48
21 24 17 25 24 22 20 24 22 24 22 22 26 25 27 27 30 25 24 21 18 12 12 9 11 18 23 27 30 30 31 32 33 33 32 31 32 32 33 34 35 36 36 36 36 36 37 38 38 39 39 39 39 41 44 41 41 42 42 42 42 41 41 41 42 42 42 43 43 44 43 43 43 43 43 43 43 44 44 44 45 45 45 46 46 46
23 23 21 26 24 22 21 25 23 26 26 25 24 24 26 25 24 19 21 25 22 20 16 11 16 21 25 33 32 30 31 33 33 33 33 32 32 33 34 35 35 35 35 36 36 36 36 38 38 38 40 41 39 40 42 42 42 41 41 41 41 41 41 41 41 41 42 42 43 43 43 43 43 43 43 43 43 44 44 44 44 44 45 45 45 46
28 28 25 21 24 23 22 24 27 29 29 29 26 25 29 26 26 22 16 19 24 24 23 21 18 22 29 33 35 34 34 33 33 34 35 34 33 34 35 35 36 35 35 35 36 36 37 37 38 38 38 38 39 40 41 41 41 41 41 41 41 41 41 41 41 42 43 43 43 43 43 44 43 44 43 43 43 43 44 44 45 45 45 45 45 46
49 27 24 26 25 24 24 26 32 36 32 30 31 33 30 26 27 25 24 23 22 24 22 18 18 20 28 35 37 38 38 37 36 35 34 35 35 35 35 35 35 35 35 36 37 38 37 37 38 38 39 38 38 39 39 40 41 41 41 41 41 41 41 41 41 42 42 43 43 43 43 43 44 44 43 42 42 42 43 44 45 46 46 46 46 46
24 28 26 21 21 23 26 27 29 31 33 28 26 29 33 34 34 31 31 28 23 25 25 20 19 15 27 36 35 37 38 39 37 37 37 35 36 36 36 35 35 36 36 36 37 38 38 37 37 37 38 37 38 39 39 40 40 40 41 41 41 41 41 41 42 42 42 43 42 43 43 44 44 43 42 41 41 42 43 44 45 46 46 47 47 48
29 29 25 21 18 16 15 14 19 25 28 28 31 31 33 33 32 28 24 25 22 23 26 19 16 23 27 30 31 33 36 36 37 38 38 37 36 36 36 36 36 36 36 36 37 37 37 37 37 37 37 38 38 38 39 39 40 40 40 41 41 41 41 41 42 42 43 43 42 42 43 44 44 43 41 41 42 42 42 42 42 42 44 47 49 50
34 31 28 27 23 22 24 27 31 32 26 21 24 29 30 32 34 30 27 23 24 21 24 24 24 26 27 28 28 29 33 34 33 35 36 37 37 37 36 36 36 36 37 36 37 37 36 36 37 36 37 38 38 39 39 40 40 40 40 41 41 41 41 42 42 43 43 43 42 42 43 44 44 43 42 41 41 42 41 41 42 42 42 44 47 48
29 25 29 27 26 26 27 27 30 33 26 28 26 25 28 31 34 31 27 26 27 25 25 28 28 26 27 28 29 29 30 33 35 34 34 35 36 37 37 37 40 38 37 37 37 36 36 36 36 36 37 38 38 39 39 40 40 40 40 41 41 41 41 41 42 42 42 42 42 43 43 44 43 42 42 42 42 41 41 41 41 42 42 43 45 47
36 31 34 28 28 30 30 29 31 31 30 28 28 27 26 28 32 30 28 30 28 25 25 27 29 27 28 29 30 30 30 32 33 34 35 35 35 36 36 36 37 37 36 37 37 36 36 36 36 36 37 37 38 39 39 39 40 40 40 40 40 40 40 41 42 42 42 42 42 43 44 43 43 42 42 42 41 41 41 41 42 42 42 42 43 45
35 32 34 29 29 32 34 34 34 30 30 33 31 30 30 31 31 32 31 31 30 29 30 30 29 29 30 30 30 31 33 33 34 35 36 36 35 36 36 35 35 36 36 35 37 36 36 36 36 37 37 37 38 38 38 39 39 39 39 39 39 39 40 42 42 42 42 42 42 43 43 41 41 41 41 41 41 41 41 41 42 42 41 41 41 42
36 31 36 34 33 33 34 35 35 34 32 30 30 31 32 32 31 32 31 30 31 30 31 31 30 30 31 33 33 33 34 36 36 37 37 36 36 36 35 35 35 35 35 35 35 35 36 36 37 37 37 37 37 38 38 38 38 38 38 39 39 39 40 42 42 42 42 42 43 42 40 39 40 40 40 41 41 41 41 41 41 40 40 40 40 40
36 30 34 33 31 31 34 34 35 33 32 30 29 30 30 29 28 28 28 30 29 28 27 28 28 29 31 33 36 36 36 36 36 36 36 35 35 36 35 34 34 34 35 34 35 35 36 37 36 37 37 37 38 38 38 38 38 38 38 38 38 39 42 42 42 41 41 42 42 40 39 39 39 40 40 41 41 41 40 40 40 39 39 40 40 40
35 32 30 29 29 29 33 35 33 33 32 30 30 31 31 31 30 28 30 33 31 28 24 21 26 30 32 36 33 34 35 36 36 37 36 36 35 35 34 34 34 35 34 34 35 36 36 36 36 37 37 37 37 38 38 38 37 37 38 38 39 42 41 41 41 41 41 40 39 38 39 39 39 40 39 39 40 39 39 39 39 39 39 39 40 41
35 34 32 33 30 29 32 32 32 30 25 26 31 33 31 27 28 27 28 30 32 30 28 29 29 30 31 31 34 34 34 36 37 38 38 37 35 35 35 35 35 35 34 34 35 36 35 37 37 38 38 37 37 38 38 39 39 39 40 40 41 40 40 40 40 40 39 38 38 39 39 39 38 38 38 38 38 38 39 39 38 39 39 40 41 40
34 34 33 35 31 30 31 31 29 24 24 31 34 34 34 31 31 29 30 31 31 32 32 32 32 32 33 33 33 34 35 36 36 36 36 37 35 35 35 36 36 35 34 34 34 36 36 37 37 36 36 37 38 38 37 38 37 37 38 38 39 39 39 39 39 38 38 38 39 39 39 38 37 37 38 38 38 38 39 39 38 38 38 39 40 41
33 33 32 33 32 31 30 29 22 23 29 32 33 35 36 34 32 30 29 30 32 32 33 31 32 31 32 33 34 35 36 36 35 37 37 38 37 36 36 36 35 35 33 34 34 35 37 37 37 36 36 39 39 39 37 36 36 36 37 38 39 39 38 38 38 38 38 38 39 39 38 37 37 37 37 37 38 37 38 39 38 37 37 39 39 40
35 35 34 31 34 29 30 29 27 30 31 31 29 31 30 28 28 27 23 26 30 31 33 31 32 33 33 33 35 35 36 33 32 33 34 38 38 37 36 35 34 34 34 34 35 35 37 38 37 36 38 38 37 36 36 36 36 36 37 37 38 38 37 37 37 38 38 39 38 39 38 37 37 36 36 37 37 37 38 39 38 37 37 37 37 36
39 35 35 32 31 33 30 28 28 27 25 28 32 35 39 38 35 34 28 28 33 33 34 33 32 32 33 33 33 32 33 31 29 30 33 34 37 37 36 36 35 35 35 35 36 37 37 37 36 37 38 36 36 36 35 36 36 37 37 38 37 37 37 37 37 37 39 38 38 38 37 37 36 36 36 36 36 37 38 39 38 36 36 35 35 35
41 40 38 32 31 31 30 28 27 25 27 31 32 38 41 40 37 35 30 28 31 32 33 34 33 33 33 33 32 33 31 27 29 31 33 34 34 37 36 35 35 35 35 35 36 36 37 36 36 37 39 36 35 35 35 35 36 37 38 39 37 36 36 36 37 38 37 38 38 38 37 37 36 36 36 36 36 37 37 38 38 37 35 35 35 35
37 35 33 32 31 32 31 29 27 30 29 34 37 37 38 39 36 31 23 19 29 33 35 34 33 33 34 34 34 32 30 26 29 31 34 34 34 35 35 34 34 35 36 37 37 37 36 38 39 39 35 34 34 34 35 35 37 39 39 39 36 36 37 37 37 37 38 38 38 38 37 36 36 36 35 35 35 36 37 38 37 35 35 34 34 33
33 33 33 31 31 32 31 31 31 32 33 36 38 39 39 40 33 26 22 26 33 35 37 36 37 38 37 36 35 31 32 32 33 35 36 35 35 34 36 35 35 36 36 36 37 39 37 37 36 36 35 34 34 35 36 37 36 38 38 38 35 36 37 37 37 38 38 37 37 37 36 35 35 35 35 35 35 36 38 37 35 35 34 34 33 32
31 32 31 32 32 31 31 30 30 31 35 37 38 39 39 33 28 27 35 37 39 38 39 38 37 39 40 40 38 36 34 36 40 39 39 36 34 33 35 35 35 35 36 37 39 38 35 35 34 34 34 34 35 37 37 36 37 38 37 36 35 36 37 37 37 37 37 37 37 36 35 35 35 35 35 35 36 35 36 36 34 33 33 33 32 31
32 31 31 31 31 30 30 30 28 23 30 39 38 35 39 31 32 37 37 37 39 38 37 38 38 38 38 37 37 37 36 36 37 38 38 36 35 34 35 35 35 35 35 35 35 37 37 34 35 34 34 34 35 37 36 35 37 38 38 35 36 37 37 38 38 37 37 37 37 36 35 35 35 35 35 35 36 35 35 34 33 32 33 32 31 31
35 29 29 28 30 28 29 26 26 30 33 38 34 31 35 37 38 38 36 34 36 37 37 37 38 39 39 39 38 38 38 37 37 38 37 35 35 35 35 35 35 35 35 35 35 36 39 34 34 34 34 34 36 36 36 36 37 38 38 36 36 37 38 37 36 36 37 37 36 36 35 35 35 35 34 34 35 35 34 33 32 32 32 31 31 30
34 31 33 31 35 31 30 32 34 37 40 40 40 39 38 38 39 38 37 36 35 36 39 37 38 38 39 39 39 39 38 38 38 39 37 35 37 35 35 35 35 34 34 34 34 36 37 34 34 34 35 34 35 36 36 35 36 38 37 36 38 38 37 37 37 37 36 35 35 35 35 34 34 34 33 34 35 35 34 34 33 32 31 31 30 29
35 35 37 34 32 33 34 35 35 34 35 35 37 40 39 39 39 39 38 37 39 38 38 37 37 37 38 38 38 38 38 38 38 40 38 39 37 35 36 35 35 35 34 34 34 35 36 35 34 34 35 35 35 36 38 35 35 37 36 37 38 38 36 37 37 37 36 35 35 34 35 34 34 34 33 34 34 35 35 35 34 33 31 31 30 29
34 35 34 33 32 30 28 32 33 34 35 35 34 35 37 39 37 37 37 38 38 38 38 38 38 38 38 39 39 39 38 38 38 38 39 38 37 35 34 34 34 34 34 33 34 35 35 35 35 35 36 36 35 35 36 36 35 35 36 38 38 37 36 37 37 37 35 34 34 34 35 34 34 33 33 33 33 34 35 35 35 34 32 31 30 29
31 36 34 34 33 32 31 32 33 34 34 34 34 34 33 33 34 35 38 39 39 39 39 39 39 39 39 39 39 39 38 38 38 38 38 37 35 34 34 34 34 34 34 34 34 35 34 35 34 35 36 37 36 35 36 36 35 36 36 36 37 36 36 37 36 35 33 33 33 34 35 34 35 34 33 33 33 33 34 35 34 33 32 31 30 29
33 37 32 33 31 32 33 34 34 34 33 33 33 34 34 34 35 35 35 36 36 37 37 38 39 39 39 38 39 39 39 39 38 38 37 37 36 34 34 34 34 33 33 33 34 35 34 34 35 34 36 36 35 35 36 36 35 34 35 36 37 35 36 36 36 35 33 33 33 33 35 35 34 33 33 32 32 33 35 35 34 33 33 34 34 32
35 33 34 33 32 31 31 31 31 30 30 31 33 33 34 35 35 35 35 35 36 36 36 36 37 37 39 40 40 40 38 39 39 38 38 37 35 34 33 33 33 33 33 34 34 35 35 36 35 35 36 36 34 35 36 35 35 35 35 36 36 35 36 37 35 34 33 34 33 34 34 34 33 33 32 31 31 32 32 33 33 34 33 33 34 33
33 33 33 31 29 30 31 32 34 33 33 33 33 34 34 35 35 35 35 35 35 36 36 36 37 37 38 39 41 40 39 40 42 41 39 37 36 35 34 33 33 33 33 34 34 34 34 34 36 35 35 35 35 35 37 36 35 34 35 35 36 35 35 34 35 34 32 34 33 34 34 33 33 33 32 31 31 31 31 31 32 33 33 33 34 33